This demonstration page uses our WeatherBlox Daily Observations layout. Learn more.

Left ArrowRight Arrow

34.02893, -84.19858

Hourly Observations for June 2, 2020

Temp ( °F °C ) Dew Point ( °F °C ) Humidity (%) Winds ( mph kmh ) Pressure ( in mb ) Visibility ( mi km ) Precip ( " mm )
12:53 am 00:53 Clear 67 19.4 61 16.1 81 81 Calm 30.18 1022 10 16 0.00 0.00
1:53 am 01:53 Clear 66 18.9 60 15.6 81 81 Calm 30.16 1021 10 16 0.00 0.00
2:53 am 02:53 Clear 67 19.4 60 15.6 79 79 SSE 3 6 30.16 1021 10 16 0.00 0.00
3:53 am 03:53 Clear 65 18.3 60 15.6 84 84 Calm 30.16 1021 10 16 0.00 0.00
4:53 am 04:53 Clear 63 17.2 60 15.6 90 90 Calm 30.17 1022 10 16 0.00 0.00
5:53 am 05:53 Clear 62 16.7 60 15.6 93 93 Calm 30.17 1022 10 16 0.00 0.00
6:53 am 06:53 Sunny 62 16.7 60 15.6 93 93 Calm 30.18 1022 10 16 0.00 0.00
7:53 am 07:53 Sunny 68 20 61 16.1 78 78 Calm 30.19 1022 10 16 0.00 0.00
8:53 am 08:53 Sunny 71 21.7 62 16.7 73 73 SSW 7 11 30.20 1023 10 16 0.00 0.00
9:53 am 09:53 Sunny 74 23.3 61 16.1 64 64 SSW 9 15 30.21 1023 10 16 0.00 0.00
10:53 am 10:53 Sunny 77 25 62 16.7 60 60 WSW 6 9 30.20 1023 10 16 0.00 0.00
11:53 am 11:53 Sunny 78 25.6 62 16.7 58 58 S 7 11 30.19 1022 10 16 0.00 0.00
12:53 pm 12:53 Sunny 81 27.2 62 16.7 53 53 undefined N/A 30.17 1022 10 16 0.00 0.00
1:53 pm 13:53 Partly Cloudy 82 27.8 63 17.2 53 53 VRB 7 11 30.15 1021 10 16 0.00 0.00
2:53 pm 14:53 Mostly Sunny 81 27.2 64 17.8 57 57 S 6 9 30.13 1020 10 16 0.00 0.00
3:53 pm 15:53 Mostly Sunny 84 28.9 61 16.1 46 46 SW 8 13 30.10 1019 10 16 0.00 0.00
4:53 pm 16:53 Mostly Cloudy 82 27.8 62 16.7 51 51 SSE 3 6 30.08 1019 10 16 0.00 0.00
5:53 pm 17:53 Mostly Sunny 83 28.3 63 17.2 51 51 S 9 15 30.06 1018 10 16 0.00 0.00
6:53 pm 18:53 Mostly Sunny 80 26.7 63 17.2 56 56 S 6 9 30.06 1018 10 16 0.00 0.00
7:53 pm 19:53 Partly Cloudy 81 27.2 62 16.7 53 53 SW 6 9 30.06 1018 10 16 0.00 0.00
8:53 pm 20:53 Clear 76 24.4 63 17.2 64 64 S 5 7 30.07 1018 10 16 0.00 0.00
9:53 pm 21:53 Clear 73 22.8 64 17.8 74 74 Calm 30.08 1019 10 16 0.00 0.00
10:53 pm 22:53 Clear 71 21.7 65 18.3 81 81 Calm 30.09 1019 10 16 0.00 0.00
11:53 pm 23:53 Clear 69 20.6 64 17.8 84 84 Calm 30.08 1019 10 16 0.00 0.00

Powered by AerisWeather